Manitowoc, WI

3:51 AM CDT on August 23, 2017 (GMT -0500)
Manitowoc County

Weather History for KMTW - September, 2012

Change the Weather History Date:

Saturday, September 1, 2012

  Actual Average Record
Temperature  
Mean Temperature 65 °F -  
Max Temperature 73 °F 74 °F 96 °F (1953)
Min Temperature 57 °F 57 °F 42 °F (1949)
Growing Degree Days 15 (Base 50)    
Moisture  
Dew Point 57 °F    
Average Humidity 77    
Maximum Humidity 88    
Minimum Humidity 57    
Precipitation  
Precipitation 0.00 in - - ()
Sea Level Pressure  
Sea Level Pressure 30.16 in    
Wind  
Wind Speed 5 mph (NNE)    
Max Wind Speed 13 mph    
Max Gust Speed 22 mph    
Visibility 10 miles    
Events      
Averages and records for this station are not official NWS values.
T = Trace of Precipitation, MM = Missing Value Source: NWS Daily Summary

Daily Weather History Graph

Daily Weather History Graph

Search for Another Location

Airport or City:

Trip Planner

Search our weather history database for the weather conditions in past years. The results will help you decide how hot, cold, wet, or windy it might be!

Date:

Astronomy

Sep. 01, 2012 Rise Set
Actual Time 6:14 AM CDT 7:25 PM CDT
Civil Twilight 5:44 AM CDT 7:55 PM CDT
Nautical Twilight 5:08 AM CDT 8:31 PM CDT
Astronomical Twilight 4:31 AM CDT 9:08 PM CDT
Moon 7:36 PM CDT (9/1) 7:26 AM CDT (9/1)
Length of Visible Light 14h 10m
Length of Day
13h 11m
Full, 99% of the Moon is Illuminated
Sep 1
Full
Sep 8
Last Quarter
Sep 15
New
Sep 22
First Quarter
Sep 29
Full

Hourly Weather History & Observations

Time (CDT) Temp. Dew Point Humidity Pressure Visibility Wind Dir Wind Speed Gust Speed Precip Events Conditions
1:35 AM 60.8 °F 55.4 °F 82% 30.16 in 10.0 mi NNW 4.6 mph - N/A   Clear
1:55 AM 60.8 °F 55.4 °F 82% 30.16 in 10.0 mi NNW 4.6 mph - N/A   Clear
2:15 AM 59.0 °F 55.4 °F 88% 30.16 in 10.0 mi Calm Calm - N/A   Clear
2:35 AM 59.0 °F 55.4 °F 88% 30.16 in 10.0 mi Calm Calm - N/A   Clear
2:55 AM 59.0 °F 55.4 °F 88% 30.16 in 10.0 mi Calm Calm - N/A   Clear
3:15 AM 57.2 °F 53.6 °F 88% 30.16 in 10.0 mi Calm Calm - N/A   Clear
3:35 AM 57.2 °F 53.6 °F 88% 30.17 in 10.0 mi Calm Calm - N/A   Clear
6:55 AM 57.2 °F 53.6 °F 88% 30.17 in 10.0 mi North 5.8 mph - N/A   Clear
7:15 AM 57.2 °F 53.6 °F 88% 30.17 in 10.0 mi North 5.8 mph - N/A   Clear
7:35 AM 60.8 °F 55.4 °F 82% 30.17 in 10.0 mi North 6.9 mph - N/A   Clear
7:55 AM 62.6 °F 55.4 °F 77% 30.17 in 10.0 mi North 6.9 mph - N/A   Clear
8:15 AM 64.4 °F 55.4 °F 73% 30.17 in 10.0 mi North 5.8 mph - N/A   Clear
8:35 AM 64.4 °F 57.2 °F 77% 30.17 in 10.0 mi North 3.5 mph - N/A   Clear
8:55 AM 66.2 °F 57.2 °F 73% 30.17 in 10.0 mi NNE 5.8 mph - N/A   Clear
10:15 AM 71.6 °F 60.8 °F 69% 30.17 in 10.0 mi NE 8.1 mph - N/A   Clear
10:35 AM 71.6 °F 57.2 °F 60% 30.16 in 10.0 mi NNE 8.1 mph - N/A   Clear
11:55 AM 71.6 °F 62.6 °F 73% 30.16 in 10.0 mi NNE 8.1 mph - N/A   Partly Cloudy
12:15 PM 71.6 °F 62.6 °F 73% 30.16 in 10.0 mi NE 10.4 mph - N/A   Scattered Clouds
12:35 PM 71.6 °F 62.6 °F 73% 30.16 in 10.0 mi NE 10.4 mph - N/A   Clear
1:15 PM 73.4 °F 62.6 °F 69% 30.15 in 10.0 mi NNE 12.7 mph 17.3 mph N/A   Clear
2:15 PM 71.6 °F 60.8 °F 69% 30.14 in 10.0 mi NNE 8.1 mph - N/A   Clear
4:15 PM 71.6 °F 55.4 °F 57% 30.10 in 10.0 mi NNE 12.7 mph 21.9 mph N/A   Clear